Location: Newark
(44.1906°N, 75.9681°W)
Time: 02:38:16
(UTC+00:00)

Envisat - Pass Details

Date: 31 January 2020
Orbit: 764 x 766 km, 98.1° (Epoch: 25 February)

Event Time Altitude Azimuth Distance (km) Brightness Sun altitude
Rises 10:49:44 0° 25° (NNE) 3,241 6.5 -16.9°
Reaches altitude 10° 10:52:26 10° 38° (NE) 2,310 5.9 -16.4°
Maximum altitude 10:56:37 25° 94° (E) 1,503 5.4 -15.7°
Drops below altitude 10° 11:00:45 10° 149° (SSE) 2,295 6.0 -15.0°
Sets 11:03:26 0° 162° (SSE) 3,215 6.6 -14.5°
